Hlavní strana
METAR-TAF:

METAR-TAF

Letiště :

Cordele, Georgie, Spojené státy americké

zeměpisná šířka: 31-59-20N, zeměpisná délka: 083-46-26W, výška: 94 m

Aktuální stav počasí

Zpráva byla vytvořena před 22 minutami, v 07:35 UTC
Bezvětří
Teplota 16°C
Vlhkost vzduchu 100%
Tlak 1021 hPa
Viditelnost: 6.4 km
Oblačno až skoro zataženo ve výšce 3000 ft
Zataženo ve výšce 3600 ft
silný déšť

METAR: KCKF 190735Z AUTO 00000KT 4SM +RA BKN030 OVC036 16/16 A3016 RMK AO2 T01630155

Čas: 02:57 (07:57 UTC)


TAF: chybějící

Stav a předpovědi počasí z více než 4 000 letišť (zprávy METAR a TAF).

Červené a žluté tečky na mapě představují dostupné meteorologické stanice.

Když kurzor umístíte na tečku, zobrazí se název stanice.

Pak kliknutím zobrazíte stav a předpověď počasí.

Chcete-li změnit mapu, kliknutím na zelené tlačítko se znaménkem +mapu přiblížíte, kliknutím na zelené tlačítko se znaménkem – mapu oddálíte a kliknutím na zelené šipky přejdete na sousední mapy.


METAR-TAF: